Volver al catálogo

STARLINK-30589

ActivoComunicacionesVLEO
NORAD 58103·PAYLOAD·🇺🇸 United States

Lanzado Oct 21, 2023 desde Vandenberg Space Force Base

Loading…

Próximos Pases (próximas 24 horas)

TLE

ActualizadoSource: CelesTrak SupGP

Época: Sep 15, 2026, 01:56 UTC

1 58103C 23161G   26258.08104167  .00039544  00000+0  11684-2 0  2584
2 58103  53.1605   4.7508 0001179  82.9604 174.1446 15.34369779    12

Sigue STARLINK-30589 en tiempo real con AllMySat

Download on the App Store